Flag for U.S.A. Weather past 2 weeks in Amarillo, Texas, U.S.A.

Now
87 °F

Sunny.


Feels Like: 84 °F
Forecast: 59 / 87 °F
Wind: 32 mph from Southwest

Location: Amarillo International Airport


UV Index: 5 (Moderate)

Visibility: 10 mi


Pressure: 29.43 "Hg

Humidity: 7%

Dew point: 15 °F

Location of AmarilloLocation

Historic Weather in Amarillo

°F

Amarillo temperature yesterday

Maximum temperature yesterday: 83 °F (at 4:53 PM)
Minimum temperature yesterday: 52 °F (at 4:53 AM)
Average temperature yesterday: 67 °F

Past Weeks' High & Low Weather Summary

 TemperatureHumidityPressure
High88 °F (Apr 23, 3:53 PM)100% (Apr 21, 12:02 AM)30.34 "Hg (Apr 21, 12:02 AM)
Low26 °F (Apr 15, 4:53 AM)4% (Apr 9, 5:53 PM)29.46 "Hg (Apr 23, 4:53 PM)
Average59 °F45%29.96 "Hg
* Reported Apr 8 4:53 PM — Apr 23 4:53 PM, Amarillo, Weather by CustomWeather, © 2014

Note: Actual official high and low records may vary slightly from our data, if they occured in-between our weather recording intervals... More about our weather records

Advertising

Historic Weather Conditions — Data for Previous 24 hours

 ConditionsComfort  
Time TempWeatherWind HumidityBarometerVisibility
4:53 PM
Apr 23
88 °FSunny.31 mph13%29.46 "Hg10 mi
3:53 PM88 °FPassing clouds.24 mph19%29.49 "Hg10 mi
2:53 PM86 °FSunny.28 mph20%29.53 "Hg10 mi
1:53 PM83 °FSunny.24 mph26%29.57 "Hg10 mi
12:53 PM79 °FScattered clouds.29 mph36%29.62 "Hg10 mi
11:53 AM77 °FScattered clouds.33 mph40%29.64 "Hg8 mi
10:53 AM73 °FPassing clouds.33 mph46%29.68 "Hg9 mi
9:53 AM68 °FSunny.30 mph51%29.70 "Hg10 mi
8:53 AM64 °FPartly sunny.22 mph54%29.71 "Hg10 mi
7:53 AM61 °FClear.18 mph58%29.70 "Hg10 mi
6:53 AM59 °FClear.17 mph58%29.71 "Hg10 mi
5:53 AM59 °FClear.16 mph54%29.72 "Hg10 mi
4:53 AM62 °FClear.21 mph46%29.71 "Hg10 mi
3:53 AM63 °FClear.22 mph43%29.71 "Hg10 mi
2:53 AM64 °FClear.23 mph40%29.73 "Hg10 mi
1:53 AM64 °FClear.18 mph38%29.75 "Hg10 mi
12:53 AM64 °FClear.20 mph38%29.76 "Hg10 mi
11:53 PM
Apr 22
65 °FClear.17 mph40%29.78 "Hg10 mi
10:53 PM66 °FClear.16 mph37%29.81 "Hg10 mi
9:53 PM70 °FClear.21 mph32%29.80 "Hg10 mi
8:53 PM74 °FSunny.20 mph26%29.79 "Hg10 mi
7:53 PM78 °FSunny.24 mph23%29.79 "Hg10 mi
6:53 PM81 °FScattered clouds.24 mph21%29.80 "Hg10 mi
Weather by CustomWeather, © 2014

See weather overview